Tracking 18796 objects as of 20-September-2017
HD Live streaming from Space Station
objects crossing your sky now

COSMOS 1932

Track COSMOS 1932 now!
10-day predictions
COSMOS 1932 is classified as:


NORAD ID: 18957
Int'l Code: 1988-019A
Perigee: 929.6 km
Apogee: 1,014.8 km
Inclination: 65.0 °
Period: 104.4 minutes
Semi major axis: 7343 km
RCS: 2.9305 m2 (large)
Launch date: March 14, 1988
Source: Commonwealth of Independent States (former USSR) (CIS)
Launch site: TYURATAM MISSILE AND SPACE COMPLEX (TTMTR)
aabbcc
Your satellite tracking list
Your tracking list is empty





NASA's NSSDC Master Catalog

Two Line Element Set (TLE):
1 18957U 88019A   17262.61606630 -.00000093 +00000-0 -53160-5 0  9996
2 18957 065.0449 047.9485 0058015 240.4050 119.1221 13.79671454488690
Source of the keplerian elements: AFSPC